Flag for Germany Weather past 2 weeks in Langenfeld (Rheinland), North Rhine-Westphalia, Germany

Now
57 °F

Clear.


Feels Like: 54 °F
Forecast: 53 / 66 °F
Wind: 13 mph from Southwest

Location: Duesseldorf

Current Time: Jul 29, 2015 at 12:47:40 AM

Latest Report: Jul 28, 2015 at 11:20 PM


Visibility: 10 mi

Pressure: 29.77 "Hg

Humidity: 67%

Dew point: 46 °F

Location of Langenfeld (Rheinland)Location

Historic Weather in Langenfeld (Rheinland) — Graph

°F

Langenfeld (Rheinland) temperature yesterday

Maximum temperature yesterday: 64 °F (at 3:50 PM)
Minimum temperature yesterday: 55 °F (at 3:20 AM)
Average temperature yesterday: 60 °F

Past Weeks' High & Low Weather Summary

 TemperatureHumidityPressure
High91 °F (Jul 17, 4:50 PM)100% (Jul 14, 7:20 AM)30.12 "Hg (Jul 14, 7:20 AM)
Low48 °F (Jul 26, 5:50 AM)26% (Jul 17, 4:50 PM)29.50 "Hg (Jul 25, 6:50 AM)
Average67 °F72%29.90 "Hg
* Reported Jul 13 11:20 PM — Jul 28 11:20 PM, Langenfeld (Rheinland), Weather by CustomWeather, © 2015

Note: Actual official high and low records may vary slightly from our data, if they occured in-between our weather recording intervals... More about our weather records

Advertising

Langenfeld (Rheinland) weather history for previous 24 hours

 ConditionsComfort  
Time TempWeatherWind HumidityBarometerVisibility
11:20 PM
Tue, Jul 28
57 °FClear.13 mph67%29.77 "Hg10 mi
10:50 PM57 °FClear.14 mph67%29.77 "Hg10 mi
10:20 PM59 °FScattered clouds.10 mph59%29.77 "HgN/A
9:50 PM61 °FScattered clouds.12 mph55%29.77 "HgN/A
9:20 PM61 °FBroken clouds.13 mph55%29.77 "HgN/A
8:50 PM63 °FBroken clouds.13 mph56%29.74 "HgN/A
8:20 PM64 °FBroken clouds.17 mph52%29.74 "HgN/A
7:50 PM64 °FPartly sunny.17 mph56%29.74 "HgN/A
7:20 PM64 °FBroken clouds.13 mph56%29.74 "HgN/A
6:50 PM64 °FBroken clouds.17 mph56%29.74 "HgN/A
6:20 PM64 °FPartly sunny.15 mph60%29.74 "HgN/A
5:50 PM63 °FPartly sunny.15 mph64%29.74 "HgN/A
5:20 PM63 °FSprinkles. Broken clouds.13 mph64%29.74 "HgN/A
4:50 PM64 °FBroken clouds.16 mph60%29.74 "HgN/A
4:20 PM64 °FBroken clouds.16 mph60%29.74 "HgN/A
3:50 PM64 °FPartly sunny.20 mph60%29.74 "HgN/A
3:20 PM63 °FBroken clouds.23 mph64%29.74 "HgN/A
2:50 PM63 °FSprinkles. Broken clouds.23 mph68%29.74 "HgN/A
2:20 PM61 °FBroken clouds.22 mph77%29.74 "HgN/A
1:50 PM61 °FPartly sunny.16 mph83%29.74 "HgN/A
1:20 PM57 °FSprinkles. Broken clouds.18 mph88%29.74 "Hg5 mi
12:50 PM57 °FSprinkles. Broken clouds.23 mph94%29.74 "Hg5 mi
12:20 PM63 °FPartly sunny.21 mph64%29.71 "HgN/A
11:20 AM63 °FBroken clouds.22 mph68%29.71 "HgN/A
10:50 AM63 °FPartly sunny.22 mph68%29.71 "HgN/A
10:20 AM61 °FPartly sunny.22 mph72%29.68 "HgN/A
9:50 AM61 °FPartly sunny.20 mph77%29.68 "HgN/A
9:20 AM59 °FPartly sunny.16 mph77%29.68 "HgN/A
8:50 AM59 °FPartly sunny.16 mph77%29.68 "HgN/A
8:20 AM57 °FLight rain. Broken clouds.12 mph82%29.68 "HgN/A
7:50 AM59 °FLight rain. Broken clouds.17 mph72%29.68 "HgN/A
7:20 AM59 °FPartly sunny.16 mph72%29.65 "HgN/A
6:50 AM57 °FScattered clouds.14 mph77%29.65 "HgN/A
6:20 AM55 °FClear.14 mph77%29.65 "Hg10 mi
5:50 AM55 °FClear.13 mph77%29.65 "Hg10 mi
5:20 AM55 °FClear.14 mph77%29.65 "Hg10 mi
4:50 AM55 °FClear.15 mph77%29.65 "Hg10 mi
4:20 AM55 °FClear.14 mph77%29.65 "Hg10 mi
3:50 AM55 °FClear.10 mph77%29.65 "Hg10 mi
3:20 AM55 °FClear.13 mph77%29.65 "Hg10 mi
2:50 AM57 °FClear.13 mph72%29.65 "Hg10 mi
2:20 AM57 °FClear.13 mph72%29.65 "Hg10 mi
1:50 AM57 °FClear.14 mph72%29.65 "Hg10 mi
1:20 AM59 °FPassing clouds.13 mph68%29.65 "HgN/A
12:50 AM61 °FPartly cloudy.13 mph68%29.65 "HgN/A
12:20 AM61 °FPassing clouds.15 mph68%29.65 "HgN/A
Weather by CustomWeather, © 2015

See weather overviewHow to use our weather pages